GW3806 Weather Reports


Display with metric or nautical units.
time (UTC)temp
F
wind
direction
speed
MPH
gust
MPH
rain 1hr
in
rain 24hr
in
rain mn
in
humidity
%
barometer
mb
20260509141722 49 107 3.0 5.0 0.00 0.00 0.00 55 1017.3
20260509141220 48 99 3.0 5.0 0.00 0.00 0.00 59 1017.2
20260509140716 47 103 3.0 6.0 0.00 0.00 0.00 61 1017.2
20260509140214 46 86 3.0 5.0 0.00 0.00 0.00 62 1017.1
20260509135711 45 121 3.0 5.0 0.00 0.00 0.00 63 1017.1
20260509135209 45 121 3.0 6.0 0.00 0.00 0.00 65 1017.2
20260509134705 43 100 4.0 4.0 0.00 0.00 0.00 65 1017.0
20260509134203 43 72 3.0 5.0 0.00 0.00 0.00 65 1017.0
20260509133700 42 117 2.0 5.0 0.00 0.00 0.00 66 1017.0
20260509133157 42 82 2.0 5.0 0.00 0.00 0.00 66 1017.2
20260509132655 41 121 4.0 5.0 0.00 0.00 0.00 66 1016.8
20260509132153 41 334 0.0 7.0 0.00 0.00 0.00 65 1017.0
20260509131649 40 121 0.0 7.0 0.00 0.00 0.00 69 1016.7
20260509131146 38 133 3.0 8.0 0.00 0.00 0.00 71 1016.7
20260509130642 39 103 0.0 6.0 0.00 0.00 0.00 70 1016.8
20260509130138 38 157 0.0 5.0 0.00 0.00 0.00 71 1016.5
20260509125635 38 344 0.0 7.0 0.00 0.00 0.00 70 1016.7
20260509125132 37 81 4.0 8.0 0.00 0.00 0.00 72 1016.4
20260509124628 37 110 5.0 7.0 0.00 0.00 0.00 72 1016.2
20260509124125 37 90 0.0 5.0 0.00 0.00 0.00 72 1016.5
20260509123623 37 73 4.0 11.0 0.00 0.00 0.00 72 1016.2
20260509123120 37 95 4.0 8.0 0.00 0.00 0.00 72 1016.1
20260509122615 37 61 2.0 7.0 0.00 0.00 0.00 72 1016.1
20260509122113 37 99 6.0 6.0 0.00 0.00 0.00 72 1016.1
20260509121609 37 86 4.0 7.0 0.00 0.00 0.00 72 1015.9
20260509121107 37 57 3.0 8.0 0.00 0.00 0.00 71 1015.9
20260509120605 37 114 7.0 7.0 0.00 0.00 0.00 71 1016.1
20260509115600 37 107 6.0 7.0 0.00 0.00 0.00 71 1016.0
20260509115058 37 344 0.0 3.0 0.00 0.00 0.00 72 1015.9
20260509114556 37 84 1.0 7.0 0.00 0.00 0.00 72 1016.0
20260509114054 37 93 3.0 5.0 0.00 0.00 0.00 72 1015.7
20260509113552 37 77 3.0 6.0 0.00 0.00 0.00 71 1015.6
20260509113050 37 98 3.0 5.0 0.00 0.00 0.00 72 1015.7
20260509112546 38 355 0.0 4.0 0.00 0.00 0.00 70 1015.7
20260509112043 38 12 1.0 4.0 0.00 0.00 0.00 70 1015.6
20260509111540 38 328 0.0 6.0 0.00 0.00 0.00 69 1015.6
20260509111037 38 86 2.0 3.0 0.00 0.00 0.00 70 1015.7
20260509110534 38 49 0.0 3.0 0.00 0.00 0.00 70 1015.6
20260509110031 38 115 0.0 2.0 0.00 0.00 0.00 69 1015.7
20260509105529 38 90 0.0 5.0 0.00 0.00 0.00 69 1015.5
20260509105026 38 96 0.0 3.0 0.00 0.00 0.00 70 1015.5
20260509104523 38 100 2.0 6.0 0.00 0.00 0.00 70 1015.3
20260509104020 38 352 0.0 7.0 0.00 0.00 0.00 70 1015.3
20260509103518 38 96 5.0 5.0 0.00 0.00 0.00 69 1015.4
20260509103016 38 74 0.0 5.0 0.00 0.00 0.00 69 1015.4
20260509102513 39 90 2.0 4.0 0.00 0.00 0.00 68 1015.1
20260509102009 39 90 5.0 8.0 0.00 0.00 0.00 68 1015.3
20260509101506 39 115 3.0 6.0 0.00 0.00 0.00 67 1015.3
20260509101003 39 94 0.0 3.0 0.00 0.00 0.00 66 1015.0
20260509100500 39 100 4.0 5.0 0.00 0.00 0.00 68 1014.9
20260509095957 38 105 2.0 3.0 0.00 0.00 0.00 67 1014.9
20260509095453 39 98 2.0 5.0 0.00 0.00 0.00 65 1014.9
20260509094951 40 29 1.0 2.0 0.00 0.00 0.00 64 1014.8
20260509094447 41 29 0.0 3.0 0.00 0.00 0.00 62 1015.0
20260509093945 41 262 1.0 2.0 0.00 0.00 0.00 60 1014.9
20260509093442 41 123 0.0 2.0 0.00 0.00 0.00 59 1014.7
20260509092940 40 108 3.0 5.0 0.00 0.00 0.00 65 1014.7
20260509092438 40 341 2.0 5.0 0.00 0.00 0.00 65 1014.7
20260509091936 41 94 4.0 7.0 0.00 0.00 0.00 63 1014.5
20260509091433 42 297 0.0 3.0 0.00 0.00 0.00 59 1014.5
20260509090930 42 55 3.0 5.0 0.00 0.00 0.00 60 1014.3
20260509090427 42 121 6.0 8.0 0.00 0.00 0.00 61 1014.3
20260509085925 42 97 5.0 6.0 0.00 0.00 0.00 59 1014.1
20260509085421 43 90 4.0 8.0 0.00 0.00 0.00 60 1014.1
20260509084918 44 85 3.0 7.0 0.00 0.00 0.00 58 1014.2
20260509084415 44 109 3.0 7.0 0.00 0.00 0.00 57 1013.8
20260509083912 44 107 4.0 7.0 0.00 0.00 0.00 58 1013.9
20260509083409 43 82 0.0 5.0 0.00 0.00 0.00 58 1013.8
20260509082906 43 75 5.0 7.0 0.00 0.00 0.00 59 1013.8
20260509082403 43 145 1.0 4.0 0.00 0.00 0.00 58 1013.8
20260509081900 44 57 2.0 3.0 0.00 0.00 0.00 57 1013.9
20260509081357 43 35 1.0 4.0 0.00 0.00 0.00 56 1013.9
20260509080855 42 127 2.0 3.0 0.00 0.00 0.00 58 1013.7
20260509080353 44 60 1.0 2.0 0.00 0.00 0.00 54 1013.7
20260509075851 44 90 3.0 3.0 0.00 0.00 0.00 52 1013.3
20260509075347 48 117 2.0 2.0 0.00 0.00 0.00 46 1013.7
20260509074845 49 95 3.0 5.0 0.00 0.00 0.00 42 1013.3
20260509074342 49 103 3.0 4.0 0.00 0.00 0.00 43 1013.3
20260509073838 50 160 3.0 5.0 0.00 0.00 0.00 43 1013.2
20260509073335 50 152 4.0 6.0 0.00 0.00 0.00 43 1013.1
20260509072831 50 156 4.0 7.0 0.00 0.00 0.00 42 1013.0
20260509072328 50 144 5.0 8.0 0.00 0.00 0.00 42 1013.0
20260509071825 50 147 5.0 7.0 0.00 0.00 0.00 43 1013.0
20260509071322 50 154 5.0 7.0 0.00 0.00 0.00 42 1013.1
20260509070819 50 134 5.0 6.0 0.00 0.00 0.00 42 1013.0
20260509070315 50 159 7.0 7.0 0.00 0.00 0.00 42 1012.7
20260509065812 51 148 6.0 11.0 0.00 0.00 0.00 41 1013.0
20260509065308 51 170 2.0 10.0 0.00 0.00 0.00 40 1012.7
20260509064804 51 160 5.0 12.0 0.00 0.00 0.00 41 1013.1
20260509064301 52 149 10.0 11.0 0.00 0.00 0.00 39 1013.1
20260509063759 52 147 6.0 7.0 0.00 0.00 0.00 40 1013.1
20260509063255 51 105 4.0 5.0 0.00 0.00 0.00 40 1013.0
20260509062753 51 134 5.0 5.0 0.00 0.00 0.00 41 1013.1
20260509062250 53 133 5.0 6.0 0.00 0.00 0.00 38 1013.3
20260509061747 52 141 4.0 5.0 0.00 0.00 0.00 39 1013.1
20260509061245 53 157 4.0 5.0 0.00 0.00 0.00 39 1013.1
20260509060741 53 185 3.0 4.0 0.00 0.00 0.00 38 1013.3
20260509060238 53 150 6.0 9.0 0.00 0.00 0.00 38 1013.2
20260509055734 53 40 2.0 2.0 0.00 0.00 0.00 38 1013.0
20260509055230 53 95 2.0 4.0 0.00 0.00 0.00 38 1012.8
20260509054726 54 149 7.0 14.0 0.00 0.00 0.00 37 1012.8
20260509054223 55 148 11.0 17.0 0.00 0.00 0.00 37 1012.7
20260509053722 55 147 9.0 20.0 0.00 0.00 0.00 37 1012.4
20260509053218 55 152 10.0 18.0 0.00 0.00 0.00 39 1012.5
20260509052716 55 176 2.0 13.0 0.00 0.00 0.00 39 1012.6
20260509052214 55 206 10.0 11.0 0.00 0.00 0.00 40 1012.6
20260509051711 55 148 11.0 14.0 0.00 0.00 0.00 40 1012.6
20260509051209 55 146 13.0 13.0 0.00 0.00 0.00 40 1012.7
20260509050706 56 143 9.0 11.0 0.00 0.00 0.00 40 1012.6
20260509050202 56 161 6.0 15.0 0.00 0.00 0.00 40 1012.4
20260509045700 56 154 12.0 15.0 0.00 0.00 0.00 41 1012.5
20260509045156 56 145 7.0 13.0 0.00 0.00 0.00 42 1012.5
20260509044654 56 173 6.0 13.0 0.00 0.00 0.00 41 1012.4
20260509044151 56 146 10.0 12.0 0.00 0.00 0.00 42 1012.7
20260509043647 56 166 4.0 12.0 0.00 0.00 0.00 43 1012.5
20260509043143 56 118 5.0 11.0 0.00 0.00 0.00 43 1012.5
20260509042640 56 154 5.0 11.0 0.00 0.00 0.00 43 1012.7
20260509042136 56 153 7.0 14.0 0.00 0.00 0.00 43 1012.8
20260509041632 56 168 3.0 8.0 0.00 0.00 0.00 45 1012.7
20260509041130 56 151 6.0 11.0 0.00 0.00 0.00 45 1013.0
20260509040629 56 156 4.0 10.0 0.00 0.00 0.00 46 1013.0
20260509040125 56 158 4.0 8.0 0.00 0.00 0.00 48 1013.0
20260509035622 56 168 6.0 9.0 0.00 0.00 0.00 49 1013.0
20260509035118 56 157 5.0 11.0 0.00 0.00 0.00 49 1013.3
20260509034616 56 204 7.0 7.0 0.00 0.00 0.00 50 1013.2
20260509034113 56 203 10.0 10.0 0.00 0.00 0.00 51 1013.3
20260509033610 54 143 4.0 9.0 0.00 0.00 0.00 54 1013.2
20260509033107 53 90 3.0 5.0 0.00 0.00 0.00 56 1013.2
20260509032604 53 109 3.0 5.0 0.00 0.00 0.00 58 1013.1
20260509032101 53 108 4.0 6.0 0.00 0.00 0.00 57 1013.1
20260509031559 53 82 4.0 7.0 0.00 0.00 0.00 58 1013.1
20260509031056 53 78 2.0 9.0 0.00 0.00 0.00 58 1013.0
20260509030554 54 78 3.0 9.0 0.00 0.00 0.00 57 1013.0
20260509030051 54 88 4.0 8.0 0.00 0.00 0.00 57 1013.0
20260509025547 54 106 7.0 8.0 0.00 0.00 0.00 58 1013.0
20260509025042 53 127 5.0 6.0 0.00 0.00 0.00 57 1012.8
20260509024539 53 112 2.0 4.0 0.00 0.00 0.00 60 1013.0
20260509024035 53 97 5.0 5.0 0.00 0.00 0.00 60 1013.0
20260509023533 53 95 3.0 5.0 0.00 0.00 0.00 58 1013.0
20260509023029 53 119 3.0 5.0 0.00 0.00 0.00 62 1013.1
20260509022526 52 90 5.0 6.0 0.00 0.00 0.00 64 1013.0
20260509022024 53 93 4.0 4.0 0.00 0.00 0.00 63 1013.0
20260509021521 55 90 3.0 4.0 0.00 0.00 0.00 59 1013.1
20260509021017 56 90 4.0 4.0 0.00 0.00 0.00 58 1013.1
20260509020516 57 120 1.0 3.0 0.00 0.00 0.00 50 1013.1
20260509020012 58 110 2.0 3.0 0.00 0.00 0.00 50 1013.0
20260509015511 59 151 1.0 2.0 0.00 0.00 0.00 49 1013.1
20260509015008 59 154 1.0 2.0 0.00 0.00 0.00 47 1013.2
20260509014504 59 210 4.0 4.0 0.00 0.00 0.00 47 1013.1
20260509014001 60 194 0.0 2.0 0.00 0.00 0.00 47 1013.2
20260509013458 60 249 0.0 0.0 0.00 0.00 0.00 48 1013.2
20260509012953 60 281 0.0 2.0 0.00 0.00 0.00 49 1013.3
20260509012449 60 303 0.0 3.0 0.00 0.00 0.00 48 1013.3
20260509011947 61 246 0.0 2.0 0.00 0.00 0.00 47 1013.3
20260509011444 62 294 0.0 2.0 0.00 0.00 0.00 45 1013.3
20260509010942 62 328 2.0 2.0 0.00 0.00 0.00 43 1013.4
20260509010439 62 282 2.0 3.0 0.00 0.00 0.00 42 1013.3
20260509005936 62 249 1.0 2.0 0.00 0.00 0.00 42 1013.6
20260509005434 62 270 1.0 1.0 0.00 0.00 0.00 44 1013.6
20260509004934 62 249 0.0 1.0 0.00 0.00 0.00 44 1013.6
20260509004431 61 195 0.0 0.0 0.00 0.00 0.00 42 1013.6
20260509003929 61 195 0.0 0.0 0.00 0.00 0.00 46 1013.6
20260509003426 61 237 2.0 4.0 0.00 0.00 0.00 44 1013.8
20260509002923 62 250 2.0 3.0 0.00 0.00 0.00 43 1013.9
20260509002421 62 270 2.0 2.0 0.00 0.00 0.00 45 1013.9
20260509001918 62 274 3.0 6.0 0.00 0.00 0.00 41 1014.1
20260509001414 62 267 3.0 6.0 0.00 0.00 0.00 43 1014.1
20260509000911 63 284 5.0 5.0 0.00 0.00 0.00 44 1013.8
20260509000410 62 290 3.0 5.0 0.00 0.00 0.00 44 1014.1
20260508235905 62 252 5.0 9.0 0.00 0.00 0.00 43 1014.2
20260508235402 62 270 3.0 8.0 0.00 0.00 0.00 45 1014.1
20260508234859 62 244 8.0 9.0 0.00 0.00 0.00 44 1014.1
20260508234355 61 297 4.0 12.0 0.00 0.00 0.00 43 1014.2
20260508233854 62 277 5.0 11.0 0.00 0.00 0.00 42 1014.2
20260508233353 63 290 5.0 7.0 0.00 0.00 0.00 45 1013.9
20260508232850 62 221 2.0 4.0 0.00 0.00 0.00 45 1014.2
20260508232346 62 250 3.0 5.0 0.00 0.00 0.00 47 1014.2
20260508231844 61 323 2.0 9.0 0.00 0.00 0.00 47 1014.1
20260508231340 61 270 3.0 10.0 0.00 0.00 0.00 47 1014.1
20260508230837 60 263 4.0 6.0 0.00 0.00 0.00 46 1014.3
20260508230333 61 238 3.0 9.0 0.00 0.00 0.00 47 1014.3
20260508225832 61 247 4.0 10.0 0.00 0.00 0.00 47 1014.3
20260508225328 61 265 0.0 7.0 0.00 0.00 0.00 48 1014.3
20260508224826 60 234 4.0 10.0 0.00 0.00 0.00 46 1014.3
20260508224323 61 285 5.0 9.0 0.00 0.00 0.00 47 1014.3
20260508223820 61 334 2.0 9.0 0.00 0.00 0.00 45 1014.4
20260508223318 61 286 5.0 9.0 0.00 0.00 0.00 46 1014.2
20260508222815 61 302 4.0 9.0 0.00 0.00 0.00 46 1014.3
20260508222312 61 309 8.0 10.0 0.00 0.00 0.00 44 1014.4
20260508221809 61 289 4.0 12.0 0.00 0.00 0.00 44 1014.5
20260508221304 61 287 11.0 13.0 0.00 0.00 0.00 44 1014.3
20260508220801 61 286 5.0 13.0 0.00 0.00 0.00 41 1014.2
20260508220257 63 227 3.0 11.0 0.00 0.00 0.00 40 1014.3
20260508215754 63 297 3.0 8.0 0.00 0.00 0.00 42 1014.5
20260508215251 63 278 7.0 10.0 0.00 0.00 0.00 40 1014.4
20260508214748 63 275 4.0 13.0 0.00 0.00 0.00 41 1014.5
20260508214245 63 229 11.0 18.0 0.00 0.00 0.00 41 1014.4
20260508213741 63 209 5.0 11.0 0.00 0.00 0.00 40 1014.5
20260508213238 64 286 11.0 16.0 0.00 0.00 0.00 45 1014.4
20260508212735 63 326 4.0 8.0 0.00 0.00 0.00 41 1014.3
20260508212231 63 310 8.0 13.0 0.00 0.00 0.00 41 1014.4
20260508211726 62 334 4.0 13.0 0.00 0.00 0.00 40 1014.4
20260508211223 62 302 5.0 8.0 0.00 0.00 0.00 43 1014.5
20260508210720 62 237 6.0 10.0 0.00 0.00 0.00 43 1014.7
20260508210217 62 281 6.0 13.0 0.00 0.00 0.00 41 1014.5
20260508205714 62 240 4.0 11.0 0.00 0.00 0.00 41 1014.7
20260508205210 62 231 9.0 9.0 0.00 0.00 0.00 42 1014.7
20260508204706 62 280 2.0 8.0 0.00 0.00 0.00 42 1014.7
20260508204203 62 291 4.0 7.0 0.00 0.00 0.00 43 1014.5
20260508203659 62 296 4.0 6.0 0.00 0.00 0.00 44 1014.7
20260508203155 62 291 6.0 10.0 0.00 0.00 0.00 45 1014.7
20260508202652 62 268 4.0 7.0 0.00 0.00 0.00 45 1014.8
20260508202149 62 212 5.0 8.0 0.00 0.00 0.00 44 1014.8
20260508201645 62 243 6.0 14.0 0.00 0.00 0.00 43 1014.9
20260508201142 66 236 9.0 15.0 0.00 0.00 0.00 41 1014.8
20260508200639 64 218 3.0 9.0 0.00 0.00 0.00 43 1014.8
20260508200135 65 172 4.0 7.0 0.00 0.00 0.00 48 1014.8
20260508195632 62 212 6.0 10.0 0.00 0.00 0.00 43 1014.9
20260508195128 64 245 11.0 12.0 0.00 0.00 0.00 42 1014.7
20260508194625 65 265 4.0 7.0 0.00 0.00 0.00 42 1014.8
20260508194122 64 153 5.0 9.0 0.00 0.00 0.00 44 1014.8
20260508193619 66 259 3.0 7.0 0.00 0.00 0.00 45 1014.8
20260508193115 63 353 5.0 6.0 0.00 0.00 0.00 43 1015.0
20260508192612 63 280 5.0 12.0 0.00 0.00 0.00 41 1014.9
20260508192109 62 240 1.0 11.0 0.00 0.00 0.00 43 1015.3
20260508191606 63 260 6.0 8.0 0.00 0.00 0.00 45 1014.9
20260508191103 62 315 3.0 9.0 0.00 0.00 0.00 47 1015.0
20260508190600 62 180 1.0 4.0 0.00 0.00 0.00 44 1015.1
20260508190056 61 150 4.0 7.0 0.00 0.00 0.00 45 1015.3
20260508185554 63 131 3.0 4.0 0.00 0.00 0.00 49 1015.4
20260508185052 61 257 3.0 6.0 0.00 0.00 0.00 45 1015.4
20260508184549 62 281 4.0 10.0 0.00 0.00 0.00 48 1015.5
20260508184045 62 303 3.0 5.0 0.00 0.00 0.00 47 1015.5
20260508183542 61 257 2.0 9.0 0.00 0.00 0.00 45 1015.4
20260508183038 63 220 3.0 7.0 0.00 0.00 0.00 49 1015.5
20260508182534 61 208 7.0 10.0 0.00 0.00 0.00 47 1015.6
20260508182031 60 169 2.0 7.0 0.00 0.00 0.00 45 1015.7
20260508181526 62 221 4.0 5.0 0.00 0.00 0.00 47 1015.6
20260508181024 62 23 1.0 5.0 0.00 0.00 0.00 47 1015.6
20260508180520 60 312 0.0 3.0 0.00 0.00 0.00 44 1015.7
20260508180017 60 223 5.0 10.0 0.00 0.00 0.00 45 1015.6
20260508175513 61 270 0.0 6.0 0.00 0.00 0.00 49 1015.6
20260508175011 60 294 1.0 13.0 0.00 0.00 0.00 49 1015.9
20260508174508 62 338 2.0 6.0 0.00 0.00 0.00 48 1015.9
20260508174005 60 26 1.0 5.0 0.00 0.00 0.00 48 1015.9
20260508173502 61 154 0.0 4.0 0.00 0.00 0.00 46 1015.9
20260508172958 60 229 2.0 5.0 0.00 0.00 0.00 43 1015.9
20260508172455 61 283 4.0 8.0 0.00 0.00 0.00 50 1015.9
20260508171952 61 245 5.0 7.0 0.00 0.00 0.00 49 1015.9
20260508171449 60 226 5.0 9.0 0.00 0.00 0.00 46 1015.9
20260508170945 60 284 3.0 8.0 0.00 0.00 0.00 44 1015.7
20260508170442 60 192 1.0 5.0 0.00 0.00 0.00 46 1015.6
20260508165939 59 273 3.0 7.0 0.00 0.00 0.00 44 1015.7
20260508165437 61 270 2.0 6.0 0.00 0.00 0.00 48 1015.9
20260508164932 60 231 4.0 5.0 0.00 0.00 0.00 45 1015.9
20260508164430 59 160 3.0 6.0 0.00 0.00 0.00 44 1015.9
20260508163927 60 245 2.0 4.0 0.00 0.00 0.00 43 1015.9
20260508163425 58 330 2.0 3.0 0.00 0.00 0.00 41 1015.9
20260508162920 59 303 2.0 3.0 0.00 0.00 0.00 48 1015.7
20260508162418 59 233 4.0 5.0 0.00 0.00 0.00 46 1015.7
20260508161914 58 300 3.0 7.0 0.00 0.00 0.00 48 1015.6
20260508161412 59 292 4.0 4.0 0.00 0.00 0.00 50 1015.7
20260508160909 59 278 0.0 3.0 0.00 0.00 0.00 53 1015.7
20260508160408 57 221 2.0 5.0 0.00 0.00 0.00 49 1015.6
20260508155903 57 270 4.0 7.0 0.00 0.00 0.00 54 1015.5
20260508155401 58 270 3.0 3.0 0.00 0.00 0.00 50 1015.6
20260508154857 57 348 0.0 4.0 0.00 0.00 0.00 50 1015.7
20260508154355 56 254 0.0 5.0 0.00 0.00 0.00 50 1015.5
20260508153851 55 307 2.0 4.0 0.00 0.00 0.00 52 1015.5
20260508153349 57 337 0.0 5.0 0.00 0.00 0.00 54 1015.5
20260508152845 56 267 3.0 4.0 0.00 0.00 0.00 52 1015.5
20260508152342 56 233 0.0 4.0 0.00 0.00 0.00 50 1015.5
20260508151838 56 315 2.0 3.0 0.00 0.00 0.00 53 1015.4
20260508151335 56 252 5.0 5.0 0.00 0.00 0.00 53 1015.4
20260508150831 56 296 3.0 4.0 0.00 0.00 0.00 50 1015.6
20260508150328 57 154 0.0 4.0 0.00 0.00 0.00 49 1015.3
20260508145824 56 90 1.0 4.0 0.00 0.00 0.00 49 1015.3
20260508145321 55 332 0.0 3.0 0.00 0.00 0.00 49 1015.3
20260508144817 56 0 1.0 3.0 0.00 0.00 0.00 48 1015.3
20260508144315 55 17 0.0 4.0 0.00 0.00 0.00 50 1014.9
20260508143813 55 90 3.0 3.0 0.00 0.00 0.00 54 1015.1
20260508143310 55 98 3.0 5.0 0.00 0.00 0.00 55 1015.0
20260508142806 53 103 3.0 5.0 0.00 0.00 0.00 57 1015.0
20260508142306 52 90 4.0 7.0 0.00 0.00 0.00 58 1015.0